�������l�o���
Date,Time,MP-1(��Sv/h),MP-2(��Sv/h),MP-3(��Sv/h),MP-4(��Sv/h),MP-5(��Sv/h),MP-6(��Sv/h),MP-7(��Sv/h),MP-8(��Sv/h),����,����(m/s),���J
2018/06/05,00:00,0.867,1.289,0.884,1.612,1.135,0.478,0.840,0.801,��쐼,2.3,��
2018/06/05,00:10,0.868,1.287,0.885,1.610,1.135,0.480,0.840,0.800,��쐼,2.2,��
2018/06/05,00:20,0.867,1.285,0.886,1.609,1.135,0.480,0.841,0.800,��쐼,1.7,��
2018/06/05,00:30,0.867,1.287,0.885,1.610,1.134,0.479,0.839,0.800,��,2.0,��
2018/06/05,00:40,0.869,1.287,0.885,1.615,1.134,0.480,0.838,0.801,��,1.9,��
2018/06/05,00:50,0.867,1.287,0.883,1.611,1.136,0.478,0.838,0.800,��쓌,1.5,��
2018/06/05,01:00,0.867,1.284,0.883,1.612,1.137,0.479,0.839,0.798,��쓌,1.5,��
2018/06/05,01:10,0.867,1.285,0.883,1.610,1.136,0.479,0.839,0.800,��쓌,1.7,��
2018/06/05,01:20,0.867,1.288,0.886,1.612,1.134,0.479,0.838,0.799,��,1.7,��
2018/06/05,01:30,0.866,1.287,0.882,1.612,1.133,0.478,0.839,0.799,��쐼,1.7,��
2018/06/05,01:40,0.867,1.282,0.884,1.611,1.133,0.479,0.839,0.800,��쐼,2.0,��
2018/06/05,01:50,0.868,1.285,0.883,1.612,1.137,0.478,0.840,0.799,�쐼,2.0,��
2018/06/05,02:00,0.868,1.286,0.883,1.611,1.137,0.480,0.838,0.800,���쐼,2.2,��
2018/06/05,02:10,0.865,1.289,0.885,1.611,1.134,0.480,0.838,0.799,�쐼,2.3,��
2018/06/05,02:20,0.866,1.286,0.885,1.610,1.133,0.478,0.838,0.801,���쐼,2.0,��
2018/06/05,02:30,0.867,1.284,0.883,1.612,1.134,0.478,0.838,0.798,���쐼,1.5,��
2018/06/05,02:40,0.863,1.285,0.882,1.609,1.137,0.478,0.838,0.799,��,2.0,��
2018/06/05,02:50,0.866,1.287,0.884,1.610,1.134,0.478,0.839,0.800,���쐼,1.9,��
2018/06/05,03:00,0.865,1.285,0.883,1.607,1.131,0.479,0.841,0.799,�쐼,1.7,��
2018/06/05,03:10,0.867,1.285,0.883,1.609,1.134,0.477,0.840,0.799,���쐼,1.7,��
2018/06/05,03:20,0.865,1.284,0.884,1.609,1.133,0.477,0.838,0.799,���쐼,2.3,��
2018/06/05,03:30,0.867,1.283,0.884,1.607,1.134,0.477,0.838,0.800,�쐼,2.3,��
2018/06/05,03:40,0.865,1.284,0.883,1.609,1.135,0.478,0.840,0.800,�쐼,2.2,��
2018/06/05,03:50,0.865,1.283,0.882,1.608,1.134,0.478,0.838,0.801,��쐼,1.9,��
2018/06/05,04:00,0.865,1.285,0.882,1.609,1.132,0.478,0.839,0.799,��쐼,1.9,��
2018/06/05,04:10,0.865,1.283,0.884,1.607,1.134,0.480,0.839,0.798,��,1.9,��
2018/06/05,04:20,0.864,1.284,0.884,1.608,1.133,0.478,0.839,0.799,��,1.7,��
2018/06/05,04:30,0.865,1.283,0.885,1.609,1.132,0.477,0.838,0.799,��,1.7,��
2018/06/05,04:40,0.865,1.285,0.883,1.609,1.133,0.478,0.839,0.799,��쐼,1.5,��
2018/06/05,04:50,0.864,1.283,0.885,1.610,1.135,0.477,0.838,0.799,�쐼,1.4,��
2018/06/05,05:00,0.866,1.284,0.883,1.610,1.135,0.477,0.839,0.798,�쐼,1.7,��
2018/06/05,05:10,0.864,1.283,0.885,1.609,1.132,0.477,0.838,0.800,��쐼,1.7,��
2018/06/05,05:20,0.866,1.283,0.884,1.607,1.135,0.478,0.840,0.799,��쐼,1.7,��
2018/06/05,05:30,0.864,1.284,0.885,1.608,1.135,0.476,0.840,0.801,��쓌,1.7,��
2018/06/05,05:40,0.866,1.284,0.883,1.610,1.133,0.479,0.839,0.799,��쓌,2.0,��
2018/06/05,05:50,0.867,1.287,0.883,1.610,1.135,0.477,0.840,0.800,��쓌,1.5,��
2018/06/05,06:00,0.867,1.287,0.885,1.611,1.134,0.479,0.840,0.801,��,1.4,��
2018/06/05,06:10,0.866,1.286,0.884,1.610,1.133,0.477,0.839,0.800,��쐼,1.5,��
2018/06/05,06:20,0.867,1.287,0.885,1.611,1.138,0.479,0.841,0.800,��쐼,1.9,��
2018/06/05,06:30,0.866,1.287,0.883,1.610,1.136,0.478,0.840,0.800,��쐼,1.4,��
2018/06/05,06:40,0.868,1.286,0.884,1.607,1.133,0.478,0.840,0.801,��쓌,0.9,��
2018/06/05,06:50,0.868,1.285,0.886,1.610,1.134,0.477,0.842,0.803,-,CALM,��
2018/06/05,07:00,0.870,1.281,0.885,1.609,1.136,0.478,0.840,0.802,�k�k��,0.6,��
2018/06/05,07:10,0.868,1.284,0.885,1.611,1.137,0.478,0.839,0.801,-,CALM,��
2018/06/05,07:20,0.866,1.283,0.885,1.611,1.135,0.479,0.840,0.801,���k��,0.8,��
2018/06/05,07:30,0.867,1.287,0.884,1.613,1.134,0.477,0.840,0.800,���쓌,1.1,��
2018/06/05,07:40,0.866,1.287,0.886,1.615,1.135,0.477,0.839,0.800,��,1.2,��
2018/06/05,07:50,0.867,1.287,0.884,1.612,1.136,0.478,0.840,0.799,���k��,1.5,��
2018/06/05,08:00,0.868,1.286,0.885,1.611,1.136,0.477,0.840,0.798,���k��,2.0,��
2018/06/05,08:10,0.864,1.287,0.884,1.610,1.135,0.477,0.841,0.798,���k��,2.5,��
2018/06/05,08:20,0.866,1.285,0.882,1.613,1.133,0.475,0.839,0.799,���k��,2.0,��
2018/06/05,08:30,0.864,1.285,0.884,1.612,1.134,0.477,0.840,0.800,���k��,2.2,��
2018/06/05,08:40,0.864,1.285,0.883,1.612,1.133,0.477,0.838,0.798,��,2.3,��
2018/06/05,08:50,0.864,1.286,0.883,1.615,1.134,0.477,0.838,0.798,���쓌,2.3,��
2018/06/05,09:00,0.863,1.283,0.882,1.613,1.135,0.478,0.839,0.800,���k��,2.6,��
2018/06/05,09:10,0.867,1.283,0.880,1.614,1.134,0.478,0.839,0.799,��,2.6,��
2018/06/05,09:20,0.864,1.285,0.883,1.614,1.134,0.477,0.840,0.798,��,2.9,��
2018/06/05,09:30,0.866,1.286,0.882,1.614,1.137,0.478,0.841,0.799,���쓌,3.6,��
2018/06/05,09:40,0.864,1.287,0.883,1.612,1.136,0.478,0.839,0.799,���쓌,3.7,��
2018/06/05,09:50,0.869,1.288,0.884,1.614,1.136,0.478,0.839,0.798,�쓌,3.6,��
2018/06/05,10:00,0.868,1.288,0.886,1.614,1.136,0.478,0.839,0.799,�쓌,3.6,��
2018/06/05,10:10,0.869,1.291,0.886,1.616,1.135,0.477,0.841,0.800,�쓌,2.5,��
2018/06/05,10:20,0.869,1.286,0.886,1.617,1.137,0.479,0.840,0.800,�쓌,3.3,��
2018/06/05,10:30,0.871,1.288,0.885,1.615,1.137,0.478,0.840,0.799,�쓌,3.6,��
2018/06/05,10:40,0.871,1.290,0.884,1.614,1.137,0.479,0.841,0.798,�쓌,2.8,��
2018/06/05,10:50,0.869,1.289,0.884,1.612,1.139,0.477,0.841,0.798,�쓌,3.2,��
2018/06/05,11:00,0.870,1.290,0.885,1.614,1.136,0.479,0.841,0.798,�쓌,3.3,��
2018/06/05,11:10,0.870,1.288,0.886,1.612,1.141,0.478,0.841,0.800,�쓌,3.3,��
2018/06/05,11:20,0.870,1.291,0.887,1.609,1.139,0.479,0.841,0.798,�쓌,3.1,��
2018/06/05,11:30,0.869,1.289,0.887,1.612,1.140,0.479,0.841,0.799,�쓌,3.5,��
2018/06/05,11:40,0.873,1.289,0.887,1.613,1.138,0.478,0.840,0.799,�쓌,4.1,��
2018/06/05,11:50,0.869,1.290,0.887,1.612,1.140,0.479,0.840,0.800,�쓌,4.0,��
2018/06/05,12:00,0.872,1.292,0.885,1.612,1.140,0.479,0.841,0.799,�쓌,4.3,��
2018/06/05,12:10,0.871,1.291,0.886,1.611,1.141,0.480,0.842,0.799,�쓌,3.3,��
2018/06/05,12:20,0.869,1.292,0.888,1.614,1.141,0.479,0.842,0.800,�쓌,3.6,��
2018/06/05,12:30,0.867,1.289,0.889,1.615,1.141,0.481,0.840,0.800,�쓌,2.9,��
2018/06/05,12:40,0.868,1.289,0.889,1.614,1.141,0.482,0.840,0.801,���쓌,2.9,��
2018/06/05,12:50,0.870,1.292,0.888,1.614,1.143,0.480,0.840,0.800,���쓌,3.3,��
2018/06/05,13:00,0.869,1.291,0.888,1.614,1.139,0.481,0.841,0.799,���쓌,4.1,��
2018/06/05,13:10,0.867,1.291,0.887,1.615,1.141,0.480,0.842,0.800,���쓌,3.9,��
2018/06/05,13:20,0.870,1.290,0.887,1.615,1.142,0.481,0.842,0.800,�쓌,3.6,��
2018/06/05,13:30,0.869,1.292,0.888,1.613,1.142,0.480,0.842,0.800,�쓌,2.6,��
2018/06/05,13:40,0.871,1.290,0.887,1.616,1.142,0.479,0.841,0.801,�쓌,3.4,��
2018/06/05,13:50,0.872,1.290,0.889,1.616,1.142,0.480,0.842,0.799,�쓌,4.0,��
2018/06/05,14:00,0.872,1.293,0.887,1.617,1.141,0.480,0.841,0.799,�쓌,4.0,��
2018/06/05,14:10,0.872,1.293,0.888,1.615,1.142,0.479,0.841,0.799,�쓌,3.5,��
2018/06/05,14:20,0.871,1.293,0.887,1.614,1.145,0.480,0.842,0.799,�쓌,4.0,��
2018/06/05,14:30,0.873,1.292,0.889,1.616,1.143,0.480,0.842,0.800,�쓌,4.7,��
2018/06/05,14:40,0.874,1.293,0.889,1.615,1.144,0.479,0.841,0.799,��쓌,3.6,��
2018/06/05,14:50,0.873,1.293,0.889,1.619,1.144,0.479,0.842,0.800,�쓌,3.8,��
2018/06/05,15:00,0.874,1.292,0.888,1.618,1.143,0.480,0.842,0.799,�쓌,3.7,��
2018/06/05,15:10,0.874,1.294,0.890,1.618,1.144,0.479,0.843,0.802,��쓌,4.7,��
2018/06/05,15:20,0.874,1.296,0.890,1.615,1.141,0.481,0.842,0.801,��쓌,4.7,��
2018/06/05,15:30,0.872,1.292,0.891,1.616,1.142,0.480,0.842,0.800,��쓌,4.6,��
2018/06/05,15:40,0.872,1.293,0.891,1.617,1.144,0.482,0.842,0.801,�쓌,4.4,��
2018/06/05,15:50,0.872,1.292,0.889,1.618,1.142,0.480,0.842,0.800,�쓌,4.6,��
2018/06/05,16:00,0.873,1.293,0.890,1.616,1.142,0.482,0.842,0.800,��쓌,3.4,��
2018/06/05,16:10,0.872,1.293,0.888,1.618,1.143,0.480,0.841,0.801,�쓌,3.9,��
2018/06/05,16:20,0.872,1.294,0.888,1.617,1.144,0.480,0.842,0.801,��쓌,4.2,��
2018/06/05,16:30,0.874,1.293,0.888,1.616,1.143,0.481,0.841,0.799,��쓌,4.7,��
2018/06/05,16:40,0.874,1.294,0.887,1.615,1.143,0.480,0.841,0.800,��쓌,4.6,��
2018/06/05,16:50,0.874,1.294,0.888,1.620,1.144,0.481,0.841,0.799,��쓌,4.6,��
2018/06/05,17:00,0.874,1.292,0.887,1.618,1.141,0.480,0.841,0.799,��쓌,4.8,��
2018/06/05,17:10,0.872,1.296,0.889,1.621,1.142,0.480,0.840,0.799,��쓌,4.4,��
2018/06/05,17:20,0.870,1.293,0.887,1.619,1.139,0.479,0.842,0.800,��쓌,4.1,��
2018/06/05,17:30,0.872,1.293,0.890,1.621,1.141,0.481,0.839,0.800,��쓌,5.4,��
2018/06/05,17:40,0.872,1.292,0.891,1.623,1.142,0.481,0.843,0.801,��쓌,3.7,��
2018/06/05,17:50,0.871,1.294,0.890,1.619,1.139,0.482,0.841,0.801,�쓌,3.0,��
2018/06/05,18:00,0.871,1.294,0.890,1.621,1.141,0.479,0.842,0.799,�쓌,3.6,��
2018/06/05,18:10,0.872,1.290,0.891,1.623,1.139,0.480,0.843,0.800,�쓌,4.7,��
2018/06/05,18:20,0.873,1.294,0.891,1.619,1.143,0.480,0.843,0.802,��쓌,4.3,��
2018/06/05,18:30,0.873,1.293,0.890,1.620,1.143,0.481,0.843,0.802,��쓌,4.1,��
2018/06/05,18:40,0.872,1.295,0.891,1.619,1.142,0.481,0.843,0.802,��쓌,4.6,��
2018/06/05,18:50,0.873,1.291,0.890,1.624,1.143,0.481,0.844,0.802,��쓌,3.8,��
2018/06/05,19:00,0.872,1.292,0.891,1.620,1.140,0.482,0.843,0.802,��쓌,3.2,��
2018/06/05,19:10,0.873,1.294,0.892,1.620,1.141,0.482,0.841,0.802,��쓌,3.9,��
2018/06/05,19:20,0.871,1.294,0.891,1.619,1.141,0.481,0.844,0.803,��쓌,5.1,��
2018/06/05,19:30,0.872,1.293,0.892,1.618,1.142,0.480,0.844,0.804,��쓌,4.6,��
2018/06/05,19:40,0.874,1.293,0.892,1.619,1.141,0.481,0.843,0.802,��쓌,4.1,��
2018/06/05,19:50,0.873,1.294,0.891,1.622,1.142,0.481,0.842,0.802,��쓌,4.3,��
2018/06/05,20:00,0.870,1.293,0.892,1.618,1.139,0.481,0.841,0.803,��쓌,5.1,��
2018/06/05,20:10,0.874,1.293,0.892,1.621,1.140,0.480,0.842,0.803,��쓌,4.9,��
2018/06/05,20:20,0.873,1.294,0.891,1.617,1.141,0.482,0.842,0.803,��쓌,5.1,��
2018/06/05,20:30,0.871,1.294,0.890,1.621,1.138,0.481,0.842,0.802,��쓌,5.0,��
2018/06/05,20:40,0.873,1.296,0.891,1.620,1.142,0.480,0.842,0.803,��쓌,4.4,��
2018/06/05,20:50,0.872,1.293,0.891,1.617,1.142,0.482,0.843,0.801,��,3.8,��
2018/06/05,21:00,0.873,1.294,0.893,1.621,1.139,0.480,0.841,0.802,��,4.0,��
2018/06/05,21:10,0.872,1.292,0.892,1.620,1.139,0.480,0.843,0.803,��,2.2,��
2018/06/05,21:20,0.874,1.291,0.891,1.619,1.141,0.481,0.844,0.804,��,2.5,��
2018/06/05,21:30,0.875,1.293,0.890,1.621,1.143,0.482,0.843,0.801,��,4.0,��
2018/06/05,21:40,0.873,1.294,0.894,1.621,1.142,0.482,0.843,0.802,��쓌,4.7,��
2018/06/05,21:50,0.871,1.294,0.892,1.620,1.141,0.482,0.844,0.802,��,2.5,��
2018/06/05,22:00,0.873,1.295,0.893,1.620,1.142,0.482,0.843,0.801,��쓌,1.9,��
2018/06/05,22:10,0.872,1.295,0.892,1.620,1.141,0.482,0.843,0.802,��쓌,4.4,��
2018/06/05,22:20,0.872,1.295,0.892,1.618,1.144,0.480,0.842,0.803,��,4.9,��
2018/06/05,22:30,0.875,1.293,0.891,1.620,1.142,0.482,0.844,0.802,��,4.6,��
2018/06/05,22:40,0.874,1.297,0.893,1.620,1.141,0.480,0.842,0.801,��쐼,3.1,��
2018/06/05,22:50,0.872,1.291,0.894,1.619,1.143,0.481,0.842,0.802,���쐼,1.1,��
2018/06/05,23:00,0.874,1.294,0.893,1.619,1.143,0.482,0.843,0.802,�k��,0.9,��
2018/06/05,23:10,0.873,1.294,0.894,1.620,1.141,0.482,0.842,0.801,-,CALM,��
2018/06/05,23:20,0.872,1.295,0.892,1.619,1.141,0.482,0.843,0.803,��쓌,1.1,��
2018/06/05,23:30,0.872,1.294,0.893,1.619,1.141,0.483,0.842,0.804,�k��,0.8,��
2018/06/05,23:40,0.874,1.292,0.892,1.617,1.141,0.483,0.841,0.803,�k��,1.5,��
2018/06/05,23:50,0.876,1.295,0.895,1.619,1.143,0.483,0.842,0.801,�k�k��,1.4,��
